Маунт-Лагуна

США     32°56′02″N   116°28′55″W
темп.,
°C
ветер,
м/с
пор.,
м/с
влажн.,
%
обл.,
%
осадки,
мм/ч
давл.,
гПа
погр.,
м
19 апреля, пн
пн1923:00+12з22140 0.0 101812
02:00+11сз11110 0.0 101611
05:00+12зсз22110 0.0 101711
08:00+18з11110 0.0 101776
11:00+22с2280 0.0 10171844
14:00+25зсз5490 0.0 10142647
17:00+22з66130 0.0 10141210
20:00+15зюз43260 0.0 101536
20 апреля, вт
вт2023:00+14зюз43230 0.0 101530
02:00+13зюз43170 0.0 101423
05:00+13зюз33180 0.0 101321
08:00+18зюз34140 0.0 1013163
11:00+22зюз4690 0.0 10121309
14:00+23зюз68130 0.0 10101408
17:00+20зюз610170 0.0 1009986
20:00+10зюз56585 0.0 1010134
21 апреля, ср
ср2123:00+7зюз668716 0.0 1012117
02:00+6зюз679383 0.0 1011186
05:00+5зюз789564 0.0 1011241
08:00+6зюз797883 0.0 1012464
11:00+11зюз685916 0.0 1011614
14:00+13з69526 0.0 1010821
17:00+11з686630 0.0 1010694
20:00+7зюз679231 0.0 1011426
22 апреля, чт
чт2223:00+6зюз679543 0.0 1012326
02:00+6зюз569537 0.0 1012267
05:00+5зюз559533 0.1 1011192
08:00+7зюз448534 0.0 1013349
11:00+11з436423 0.0 1012536
14:00+15з43493 0.0 10101016
17:00+13з556327 0.0 1010529
20:00+8зюз559129 0.3 1012246
23 апреля, пт
пт2323:00+8зюз559178 0.3 1013191
02:00+7зюз569647 0.0 1014147
05:00+7зюз559128 0.0 101497
08:00+11зюз44631 0.0 1014148
11:00+19з33340 0.0 1013732
14:00+20з55345 0.0 10131022
17:00+18зюз56408 0.0 1013767
20:00+10зюз55770 0.0 1015107